Temp
18 18 18 18 19 20 21 21 21 21 20 21 20 21 20 20 21 20 26 28 28 27 27 31 31 32 33 35 36 37 35 36 38 39 39 38 38 37 37 34 34 34 35 32 29
18 18 18 18 19 20 21 21 21 21 20 20 20 20 20 20 19 27 29 27 26 26 27 32 33 34 34 35 36 35 35 36 40 41 40 38 38 36 34 34 34 34 32 30 29
18 18 18 19 19 20 20 21 20 21 20 20 20 20 20 19 26 31 26 27 26 26 28 31 34 35 34 36 36 35 35 38 39 40 39 38 38 37 35 34 34 32 30 30 30
18 18 18 18 19 20 20 20 21 20 20 20 20 20 20 19 31 29 26 26 26 25 29 32 34 33 34 34 36 35 36 37 39 39 37 37 38 36 35 36 35 33 31 31 31
18 18 18 18 19 19 20 20 21 20 20 20 20 19 18 28 31 28 27 27 25 26 30 33 33 34 33 34 35 35 36 37 37 38 37 37 37 36 36 35 34 32 31 31 32
18 18 17 18 19 19 20 21 20 20 20 20 19 19 21 28 30 29 28 26 28 29 32 34 34 35 35 35 34 36 36 36 37 37 37 35 36 36 33 33 31 30 31 31 32
18 18 18 18 19 19 20 20 20 20 20 19 19 18 25 30 29 29 29 30 30 31 33 33 34 34 34 34 35 35 34 36 36 36 36 35 35 33 33 32 30 30 31 31 31
18 18 18 18 19 20 20 20 20 20 19 19 19 19 28 30 30 29 30 30 30 30 31 32 32 34 34 36 34 33 33 33 36 35 35 34 34 35 32 32 30 29 28 28 28
18 19 18 18 19 20 20 20 19 19 19 19 18 23 31 28 30 30 30 31 31 30 30 30 31 32 34 33 33 34 33 34 35 36 35 33 34 37 33 32 31 29 26 25 25
19 19 18 19 19 20 20 19 19 19 18 18 21 26 30 32 31 30 31 31 32 32 31 32 32 31 31 32 32 34 34 34 35 35 35 35 34 33 32 32 32 31 28 26 24
19 19 19 19 20 20 20 18 24 24 23 30 31 31 31 32 31 31 31 32 33 32 31 32 32 32 33 34 34 35 34 35 36 37 35 34 35 34 32 32 32 32 30 27 26
19 19 19 19 20 20 20 29 28 27 29 32 31 31 30 30 31 32 31 31 32 31 33 32 31 34 35 35 34 33 33 33 35 36 35 35 34 36 32 33 33 32 31 29 27
20 19 19 20 20 21 25 27 26 26 29 32 32 32 32 31 32 33 32 32 32 32 33 32 34 34 34 32 32 32 32 33 33 35 35 34 33 34 36 34 34 34 33 31 29
20 20 19 20 19 27 28 26 27 26 29 32 32 32 33 33 32 33 33 33 33 32 33 33 34 34 32 32 33 32 34 33 33 33 32 34 31 34 35 35 33 33 32 31 29
20 20 20 20 20 28 27 26 26 26 28 32 32 33 33 33 33 32 33 33 31 32 32 32 33 32 32 32 33 32 34 33 33 32 32 33 33 34 36 35 35 34 33 32 31
20 20 21 22 22 27 26 26 26 28 27 31 32 31 32 32 32 33 33 33 33 32 32 33 34 34 33 33 34 34 32 33 33 32 31 32 32 33 35 35 36 36 34 33 33
21 22 22 21 28 26 26 28 29 29 31 29 29 31 31 30 31 31 31 31 30 28 30 31 32 34 34 32 33 33 32 30 30 31 30 33 33 33 35 36 36 35 36 35 35
22 22 23 23 26 26 26 29 28 28 28 29 29 30 29 29 29 30 30 29 27 28 29 29 29 30 31 30 30 31 31 29 28 30 32 34 32 34 36 37 34 34 33 33 35
23 23 27 27 26 25 28 29 27 27 27 27 29 28 30 30 29 29 29 28 28 27 25 26 28 31 29 30 30 29 29 31 27 27 29 32 33 35 33 31 31 32 32 32 32
23 29 29 28 28 28 30 25 26 26 27 27 27 27 26 27 27 27 28 27 26 26 27 26 24 27 28 30 30 29 31 29 29 25 25 29 31 30 28 29 28 28 29 29 28
22 31 29 28 29 31 29 27 27 27 26 25 25 25 26 25 26 26 27 26 25 25 25 25 24 25 27 27 28 28 28 27 26 25 25 24 26 26 23 25 26 27 27 27 26
29 30 28 28 30 30 28 27 20 26 26 25 25 25 24 25 25 25 25 25 25 24 23 24 23 23 24 27 28 27 26 23 21 20 20 21 24 24 24 26 26 26 25 25 25
30 30 28 28 29 28 26 26 25 25 24 24 24 24 24 24 23 24 24 25 24 23 22 22 22 21 23 26 27 25 25 23 20 21 22 23 24 17 17 21 23 25 24 24 23
30 29 29 29 27 27 26 25 25 24 24 24 24 24 23 24 25 23 24 24 24 24 18 20 21 21 21 22 24 23 24 24 21 18 17 19 17 16 16 16 18 23 23 23 22
29 26 25 27 26 25 25 25 25 24 24 24 24 23 23 22 23 23 23 23 24 17 22 22 20 21 22 23 23 23 22 24 23 19 15 18 18 18 14 16 17 17 21 22 20
27 27 27 24 24 25 20 24 24 23 23 23 22 23 23 22 22 21 21 22 21 22 22 21 19 20 20 22 22 22 17 20 20 20 20 18 18 18 19 17 17 17 21 20 19
25 24 27 20 24 25 24 23 23 23 23 23 22 22 23 22 22 22 22 21 21 20 20 19 19 19 19 21 22 16 11 14 16 18 17 15 16 17 17 16 19 19 19 17 15
Height
815 811 809 806 804 802 800 798 797 795 793 792 790 788 785 783 780 777 771 766 765 766 766 763 763 762 761 755 750 745 766 762 746 735 729 725 733 731 734 751 752 753 752 768 783
814 810 808 805 802 800 799 796 795 793 792 790 788 786 784 781 778 768 762 763 765 765 765 760 756 756 757 752 747 756 761 751 721 711 720 726 727 739 751 752 758 758 764 775 783
812 810 807 803 801 798 797 795 793 792 791 789 787 785 783 780 771 753 758 761 762 764 764 759 753 751 756 745 745 751 759 731 723 713 717 725 728 732 747 755 753 766 773 777 782
811 808 805 802 799 797 795 793 791 790 789 788 786 785 782 781 767 756 760 760 761 762 762 757 753 754 755 753 739 755 741 736 722 715 730 736 722 736 744 738 738 758 770 775 779
810 806 803 800 797 795 794 792 790 789 788 787 785 785 782 771 757 758 758 757 759 761 757 751 752 750 755 748 742 746 740 731 728 724 730 730 730 730 738 743 746 761 769 772 776
807 804 801 798 796 794 792 791 789 787 786 785 784 784 782 771 756 758 759 759 758 757 751 747 746 741 743 743 746 736 737 734 728 730 731 741 734 731 747 749 758 766 766 770 773
804 802 800 797 794 792 790 789 787 786 785 784 784 783 776 760 757 758 758 757 756 754 749 748 743 744 742 744 735 739 750 736 733 733 733 734 743 748 746 752 764 767 767 770 775
802 800 798 795 793 790 788 787 786 784 784 783 783 784 766 755 756 756 757 756 756 755 752 749 750 745 741 730 740 749 747 754 730 734 733 742 754 732 744 752 761 769 774 778 780
800 798 796 794 791 788 787 785 784 783 782 782 783 779 755 756 754 751 753 751 754 754 754 755 752 751 743 748 751 742 758 748 736 717 731 742 748 718 735 746 752 763 776 784 787
798 796 794 792 790 787 785 783 781 781 781 783 781 777 756 748 749 751 751 750 751 750 752 751 751 757 755 755 763 743 741 736 732 723 729 734 741 736 740 743 748 753 767 778 785
795 794 793 791 788 786 784 782 780 780 776 760 754 753 749 748 750 749 749 748 746 749 756 747 757 757 746 739 733 729 735 731 719 711 722 731 727 725 736 738 739 750 756 767 774
794 792 791 789 787 786 783 772 774 776 767 750 752 749 751 752 749 744 748 751 750 755 739 747 756 735 725 728 735 739 746 742 725 713 720 723 729 713 725 730 725 735 744 755 768
792 791 790 788 787 785 781 778 777 776 768 748 746 745 746 749 744 740 744 743 745 749 742 749 732 724 731 741 748 744 747 740 738 721 718 730 736 724 710 713 718 721 730 742 754
791 790 788 787 789 779 776 778 776 775 768 755 748 747 744 741 746 740 738 739 739 747 736 736 722 729 739 744 739 748 727 730 737 739 748 720 754 722 714 708 712 720 723 734 747
790 789 788 787 785 776 779 777 775 775 787 753 750 743 740 743 741 741 738 738 749 741 741 740 730 738 742 736 726 737 722 728 727 737 738 730 737 716 698 708 702 706 710 717 730
789 788 787 787 785 780 778 777 777 781 794 763 752 754 749 747 746 737 736 736 733 741 735 732 717 722 728 721 720 718 730 727 727 730 747 731 730 719 704 699 693 684 694 704 714
789 788 787 785 778 778 776 773 778 779 761 775 773 759 758 765 757 754 752 748 758 771 749 741 728 711 711 728 722 723 734 752 752 744 740 712 719 707 688 679 680 684 679 687 695
791 789 786 784 780 777 775 769 791 783 785 771 771 765 770 768 765 758 758 761 773 770 763 757 757 739 731 736 741 730 732 753 765 745 719 689 709 690 664 662 674 681 687 693 690
792 787 783 782 778 775 772 781 796 794 788 786 772 778 768 765 771 767 765 770 770 778 792 779 765 733 742 740 736 743 745 723 749 747 739 710 690 669 674 691 695 693 691 697 701
792 780 781 780 776 772 769 800 796 793 789 787 792 786 793 782 787 782 774 777 784 779 779 781 784 761 750 737 732 738 726 742 731 761 760 723 710 712 713 708 713 711 706 709 718
790 773 781 779 773 764 781 790 793 792 794 799 799 799 794 795 791 786 779 782 788 790 786 781 785 776 761 756 749 742 742 748 748 755 755 755 742 720 729 723 726 718 717 723 734
782 778 783 778 777 776 789 793 807 797 795 797 797 799 803 799 798 791 793 791 790 794 797 786 792 789 775 753 745 749 754 767 780 787 780 776 747 731 738 724 730 724 726 727 738
780 781 785 778 783 791 796 800 803 803 805 805 805 804 802 803 807 796 796 789 793 797 800 798 791 795 774 757 742 757 758 765 785 780 764 761 747 770 767 747 743 730 732 735 743
782 783 783 785 789 792 800 805 806 806 807 806 807 803 805 803 795 802 797 793 792 794 807 805 799 797 794 780 767 769 763 757 773 793 796 784 787 788 781 774 764 741 737 737 750
787 798 799 794 797 802 800 805 805 809 805 806 804 806 809 811 804 798 798 799 792 806 795 795 804 794 780 770 767 764 764 753 754 777 800 782 786 781 794 784 772 767 745 741 756
793 794 796 805 807 802 816 809 810 809 811 808 812 809 805 810 810 813 807 804 802 797 795 796 806 796 791 770 766 769 792 775 773 771 774 782 782 776 774 783 774 768 750 752 763
804 804 797 814 806 804 806 811 812 810 808 808 810 809 804 808 808 805 804 804 804 805 804 806 804 799 795 774 768 801 824 812 796 785 791 799 791 782 788 786 775 771 763 767 781
Wind_Speed
15 16 17 16 15 15 15 14 13 13 13 13 13 14 14 16 17 11 13 12 11 17 9 9 13 17 19 18 20 14 14 16 22 15 2 10 13 7 7 10 7 4 11 26 27
16 16 17 16 15 14 14 13 12 12 13 12 12 13 14 15 17 21 20 15 11 12 14 15 14 15 14 18 17 15 14 22 20 13 3 14 10 12 7 11 8 10 19 28 27
15 16 16 16 15 14 13 12 11 12 12 11 11 12 12 13 17 1 7 10 13 14 18 15 14 13 17 16 19 19 20 19 20 10 7 5 12 14 13 11 12 16 19 22 24
15 16 16 16 15 13 12 11 10 11 10 11 10 11 12 9 4 6 6 8 8 15 16 16 17 15 16 18 18 20 20 23 22 6 5 15 8 14 13 2 21 19 20 20 19
15 15 17 17 15 13 12 11 10 9 9 9 9 8 7 8 11 3 5 8 12 15 18 16 16 15 16 15 16 19 19 18 21 14 8 12 14 12 13 5 18 19 19 19 17
15 15 16 17 14 12 11 10 9 8 8 7 6 6 7 14 4 2 4 6 9 15 16 15 12 14 14 16 13 15 16 23 13 17 16 13 15 10 12 12 15 19 19 18 17
14 15 16 16 13 11 10 9 8 8 7 6 4 5 12 13 2 4 3 4 8 12 10 12 10 8 13 12 13 15 15 18 14 14 18 10 19 14 19 16 16 16 16 16 15
15 15 15 15 13 10 9 10 9 7 6 4 4 6 8 3 4 8 9 6 7 5 8 8 10 15 17 13 5 15 17 17 21 19 16 10 20 20 18 19 19 17 13 13 14
15 15 14 14 12 10 10 10 9 7 6 4 5 9 5 5 8 7 12 11 8 8 7 5 10 13 13 15 14 14 15 21 20 22 16 17 19 24 24 21 21 20 17 15 14
15 14 13 13 11 10 10 10 8 4 4 7 12 8 8 6 4 1 10 10 8 8 8 11 9 12 13 13 15 14 18 16 17 17 17 19 20 17 18 20 18 19 18 18 18
13 12 11 12 10 9 8 4 5 6 12 10 5 9 8 4 4 7 10 13 10 9 12 14 11 15 18 18 20 21 15 12 15 11 20 19 19 22 20 20 19 18 18 18 19
11 10 10 10 8 7 7 6 9 6 7 3 1 4 3 6 5 7 10 10 11 14 13 6 13 16 16 14 12 16 15 17 16 15 13 14 20 20 22 20 20 20 18 20 19
8 7 8 7 7 6 7 6 7 9 7 8 5 9 4 10 3 8 11 14 13 13 15 14 19 1 7 11 14 16 17 17 18 15 18 16 19 22 23 25 17 18 20 20 21
6 6 6 5 3 3 4 7 11 3 6 10 5 6 6 4 3 6 7 13 10 12 11 13 13 12 10 14 16 17 17 18 18 17 17 19 17 22 23 23 24 20 19 19 21
4 3 3 5 10 9 7 11 6 4 2 5 9 1 6 4 9 7 3 9 14 17 5 17 9 8 12 16 16 17 17 18 17 18 21 25 15 18 19 25 24 26 24 24 24
3 1 1 3 6 6 10 10 4 7 3 5 6 8 4 3 6 8 4 7 14 13 17 17 17 12 14 15 14 12 14 19 17 15 18 21 21 20 19 20 21 19 23 24 24
4 4 2 3 8 10 11 7 7 5 4 6 9 11 4 9 4 11 10 7 10 11 16 3 18 20 13 15 15 19 16 13 17 16 17 21 22 21 22 19 21 12 20 23 26
4 1 5 4 11 11 9 9 4 4 9 10 10 11 3 8 13 8 16 3 5 15 14 16 14 12 21 16 18 21 15 12 23 19 19 20 21 22 21 13 6 8 3 3 15
7 5 3 10 8 7 8 5 7 6 8 10 15 6 9 9 10 16 13 6 8 12 12 14 19 24 15 18 18 18 17 20 18 19 20 22 26 25 10 11 5 2 6 9 15
7 9 12 12 10 13 0 6 5 7 9 12 9 9 13 12 11 12 11 11 10 13 15 17 19 17 25 23 19 22 19 20 15 21 24 20 22 3 7 1 7 4 4 9 13
8 4 10 11 12 5 7 6 5 7 10 8 10 9 10 10 11 11 6 12 12 13 15 15 13 17 18 17 20 19 16 16 17 13 16 14 11 7 3 9 3 4 8 11 12
9 2 13 12 1 3 7 4 3 6 7 5 6 7 8 10 8 7 9 9 9 13 17 11 7 15 18 22 19 18 20 11 6 6 9 12 15 12 11 7 2 7 9 15 15
3 3 9 13 3 6 4 6 5 6 7 6 5 5 7 7 5 6 6 7 10 14 11 11 7 15 14 13 3 18 16 9 9 14 19 17 6 15 21 11 5 0 10 13 17
4 3 4 5 5 4 4 2 2 3 4 3 3 3 7 7 3 6 10 8 13 12 4 5 11 15 15 20 17 18 21 22 6 6 11 13 18 18 19 22 24 8 11 16 17
3 4 4 3 6 4 2 1 1 2 1 3 4 5 7 6 9 4 13 14 13 7 9 5 12 17 21 21 20 23 22 21 15 14 6 16 21 13 16 19 17 16 7 18 19
5 2 3 4 1 2 2 2 4 2 4 2 5 7 6 6 8 13 13 11 6 9 9 8 8 15 19 21 17 18 20 18 14 15 10 12 18 5 10 9 9 16 13 14 18
3 1 6 4 3 6 3 1 1 4 4 4 5 8 7 10 12 12 9 7 7 6 9 8 11 13 16 18 17 7 10 15 15 12 11 9 14 10 10 15 13 5 5 16 16
Wind_Direction
331 329 322 317 310 303 300 300 300 297 297 298 302 304 307 306 302 275 256 254 206 244 212 211 206 218 228 235 235 238 256 251 248 234 72 138 166 139 70 138 163 171 147 144 149
332 332 326 318 308 301 297 297 299 300 297 298 302 304 309 313 295 267 254 249 245 209 214 211 208 208 220 227 224 232 237 244 252 274 225 169 177 153 187 155 151 121 103 138 155
330 329 325 322 311 302 298 299 304 298 295 299 303 305 309 319 277 184 180 224 227 207 224 238 246 217 228 227 219 221 243 247 256 304 330 277 193 142 208 177 162 142 146 155 163
323 327 327 323 315 308 306 303 297 293 298 304 307 308 310 290 316 104 188 248 227 201 222 232 233 230 238 236 233 229 240 254 271 240 215 264 194 157 214 28 141 145 158 161 168
317 323 328 326 320 315 306 298 294 300 309 307 313 313 310 240 254 51 305 253 201 199 218 216 218 228 237 239 244 237 238 246 257 276 231 258 265 191 161 136 128 147 164 167 170
316 321 324 328 319 309 303 302 303 304 301 304 308 301 260 264 39 90 120 154 195 208 221 217 223 230 252 254 253 245 245 255 242 234 243 234 233 162 137 135 141 161 173 169 173
313 315 321 327 320 311 306 298 295 293 294 295 285 298 269 259 301 173 211 256 199 210 227 235 259 249 226 253 246 257 262 238 236 237 243 222 241 196 158 166 160 172 171 169 163
310 312 319 323 316 308 297 295 292 286 279 275 267 275 269 150 227 226 232 207 200 233 274 249 235 256 255 252 247 232 236 250 214 219 223 210 233 195 159 179 170 164 172 176 170
305 309 315 316 309 298 295 293 285 271 270 253 271 224 251 167 222 205 206 209 197 214 216 250 249 246 245 253 240 211 242 222 257 181 218 207 241 238 171 186 179 167 176 181 180
302 302 308 307 301 298 303 294 277 263 278 243 262 262 246 211 39 206 197 236 203 197 205 212 212 225 238 236 244 227 213 250 225 179 204 220 229 151 180 188 189 176 176 184 186
297 294 300 302 299 299 318 277 212 193 219 285 337 291 282 282 234 216 188 205 219 215 231 194 221 225 237 228 263 289 297 285 260 233 196 221 238 178 185 193 187 199 182 190 196
294 297 297 301 293 296 299 292 28 358 300 127 239 239 276 245 245 193 188 214 212 245 216 217 236 257 237 261 257 267 265 268 278 280 265 229 229 245 178 202 195 196 198 191 191
299 291 294 291 290 272 274 3 331 325 257 117 95 42 67 185 257 156 198 214 255 253 262 250 278 28 284 258 250 253 260 266 265 260 235 260 259 251 229 195 208 204 201 199 196
298 294 291 286 264 242 236 330 320 313 258 95 41 61 150 238 181 357 219 267 262 272 297 257 272 275 233 245 257 257 255 248 263 269 258 210 253 238 233 243 194 205 203 200 202
308 292 261 225 312 263 340 328 321 244 210 53 55 83 185 291 334 105 322 260 263 288 232 279 209 235 247 254 252 261 268 268 258 246 261 254 255 263 231 230 219 203 208 202 198
360 3 169 268 246 294 311 313 270 238 84 53 36 348 10 7 13 346 205 210 266 280 275 261 283 287 277 289 289 286 276 262 259 267 254 250 256 255 250 242 254 240 195 208 200
85 97 187 285 326 310 303 257 241 5 339 36 348 330 336 346 329 338 332 345 1 327 291 315 276 245 236 245 267 254 244 256 245 233 245 244 247 254 260 256 242 315 202 199 198
99 2 331 266 304 296 279 253 27 21 11 354 322 310 247 10 334 340 319 269 60 345 324 304 313 340 6 324 327 311 296 272 280 276 275 266 247 246 246 220 120 159 178 284 168
336 271 316 350 317 283 265 14 26 12 351 335 315 345 335 341 356 321 316 348 36 5 346 313 293 317 316 278 300 287 284 291 303 292 288 281 282 278 156 91 27 328 181 220 146
291 272 36 345 321 282 316 51 94 25 333 334 331 335 326 342 330 325 310 64 356 6 347 314 306 306 305 306 290 279 275 284 274 275 268 273 275 344 77 1 39 63 77 109 133
264 242 23 334 297 292 22 63 83 57 357 347 343 327 340 348 323 322 1 65 16 352 332 314 298 304 309 288 305 314 309 313 281 308 290 276 281 33 334 26 41 111 130 145 156
273 302 4 321 169 12 49 25 318 21 11 8 3 332 1 331 328 333 348 4 356 346 323 333 308 292 295 297 280 279 296 7 319 309 277 273 272 85 351 29 261 117 134 149 150
308 17 21 309 335 98 108 92 49 22 30 6 15 354 345 313 310 358 359 355 329 333 352 328 304 308 297 306 320 329 312 286 309 305 279 295 298 356 3 334 275 87 150 146 142
286 242 118 58 58 356 124 53 121 29 66 14 348 319 322 320 278 292 300 335 331 312 45 285 286 294 294 302 309 302 299 292 226 251 293 291 342 343 349 342 330 303 165 146 143
332 68 349 22 69 62 29 303 351 32 111 353 192 354 339 312 319 309 335 329 321 122 282 306 308 301 301 309 299 281 330 313 264 202 243 288 294 333 316 325 298 272 250 142 141
329 316 115 94 358 206 143 36 352 42 308 78 321 335 308 298 346 314 322 321 313 342 330 345 303 307 305 288 324 331 13 343 345 343 304 299 295 330 299 277 351 256 169 143 127
40 92 287 129 173 269 67 40 22 300 150 301 324 311 305 355 318 305 296 293 311 306 343 319 321 313 301 341 317 47 340 331 353 356 349 332 346 22 17 7 7 7 103 111 126